Index of /20260430/WXO-DD/model_rdps/10km/12/038
Name Last modified Size Description
Parent Directory -
20260430T12Z_MSC_RDPS_AbsoluteVorticity_IsbL-0250_RLatLon0.09_PT038H.grib2 2026-04-30 14:51 590K
20260430T12Z_MSC_RDPS_AbsoluteVorticity_IsbL-0500_RLatLon0.09_PT038H.grib2 2026-04-30 14:51 560K
20260430T12Z_MSC_RDPS_AbsoluteVorticity_IsbL-0700_RLatLon0.09_PT038H.grib2 2026-04-30 14:51 619K
20260430T12Z_MSC_RDPS_AbsoluteVorticity_IsbL-0850_RLatLon0.09_PT038H.grib2 2026-04-30 14:51 767K
20260430T12Z_MSC_RDPS_AirTemp_AGL-120m_RLatLon0.09_PT038H.grib2 2026-04-30 14:51 383K
20260430T12Z_MSC_RDPS_AirTemp_AGL-2m_RLatLon0.09_PT038H.grib2 2026-04-30 14:51 619K
20260430T12Z_MSC_RDPS_AirTemp_AGL-40m_RLatLon0.09_PT038H.grib2 2026-04-30 14:51 394K
20260430T12Z_MSC_RDPS_AirTemp_AGL-80m_RLatLon0.09_PT038H.grib2 2026-04-30 14:51 387K
20260430T12Z_MSC_RDPS_AirTemp_IsbL-0001_RLatLon0.09_PT038H.grib2 2026-04-30 14:51 252K
20260430T12Z_MSC_RDPS_AirTemp_IsbL-0005_RLatLon0.09_PT038H.grib2 2026-04-30 14:51 284K
20260430T12Z_MSC_RDPS_AirTemp_IsbL-0010_RLatLon0.09_PT038H.grib2 2026-04-30 14:51 295K
20260430T12Z_MSC_RDPS_AirTemp_IsbL-0020_RLatLon0.09_PT038H.grib2 2026-04-30 14:51 309K
20260430T12Z_MSC_RDPS_AirTemp_IsbL-0030_RLatLon0.09_PT038H.grib2 2026-04-30 14:51 331K
20260430T12Z_MSC_RDPS_AirTemp_IsbL-0050_RLatLon0.09_PT038H.grib2 2026-04-30 14:51 309K
20260430T12Z_MSC_RDPS_AirTemp_IsbL-0100_RLatLon0.09_PT038H.grib2 2026-04-30 14:51 387K
20260430T12Z_MSC_RDPS_AirTemp_IsbL-0150_RLatLon0.09_PT038H.grib2 2026-04-30 14:51 416K
20260430T12Z_MSC_RDPS_AirTemp_IsbL-0175_RLatLon0.09_PT038H.grib2 2026-04-30 14:51 410K
20260430T12Z_MSC_RDPS_AirTemp_IsbL-0200_RLatLon0.09_PT038H.grib2 2026-04-30 14:51 412K
20260430T12Z_MSC_RDPS_AirTemp_IsbL-0225_RLatLon0.09_PT038H.grib2 2026-04-30 14:51 408K
20260430T12Z_MSC_RDPS_AirTemp_IsbL-0250_RLatLon0.09_PT038H.grib2 2026-04-30 14:51 412K
20260430T12Z_MSC_RDPS_AirTemp_IsbL-0275_RLatLon0.09_PT038H.grib2 2026-04-30 14:51 393K
20260430T12Z_MSC_RDPS_AirTemp_IsbL-0300_RLatLon0.09_PT038H.grib2 2026-04-30 14:51 401K
20260430T12Z_MSC_RDPS_AirTemp_IsbL-0350_RLatLon0.09_PT038H.grib2 2026-04-30 14:51 418K
20260430T12Z_MSC_RDPS_AirTemp_IsbL-0400_RLatLon0.09_PT038H.grib2 2026-04-30 14:51 419K
20260430T12Z_MSC_RDPS_AirTemp_IsbL-0450_RLatLon0.09_PT038H.grib2 2026-04-30 14:51 394K
20260430T12Z_MSC_RDPS_AirTemp_IsbL-0500_RLatLon0.09_PT038H.grib2 2026-04-30 14:51 406K
20260430T12Z_MSC_RDPS_AirTemp_IsbL-0550_RLatLon0.09_PT038H.grib2 2026-04-30 14:51 424K
20260430T12Z_MSC_RDPS_AirTemp_IsbL-0600_RLatLon0.09_PT038H.grib2 2026-04-30 14:51 443K
20260430T12Z_MSC_RDPS_AirTemp_IsbL-0650_RLatLon0.09_PT038H.grib2 2026-04-30 14:51 457K
20260430T12Z_MSC_RDPS_AirTemp_IsbL-0700_RLatLon0.09_PT038H.grib2 2026-04-30 14:51 483K
20260430T12Z_MSC_RDPS_AirTemp_IsbL-0750_RLatLon0.09_PT038H.grib2 2026-04-30 14:51 407K
20260430T12Z_MSC_RDPS_AirTemp_IsbL-0800_RLatLon0.09_PT038H.grib2 2026-04-30 14:51 445K
20260430T12Z_MSC_RDPS_AirTemp_IsbL-0850_RLatLon0.09_PT038H.grib2 2026-04-30 14:51 488K
20260430T12Z_MSC_RDPS_AirTemp_IsbL-0875_RLatLon0.09_PT038H.grib2 2026-04-30 14:51 508K
20260430T12Z_MSC_RDPS_AirTemp_IsbL-0900_RLatLon0.09_PT038H.grib2 2026-04-30 14:51 515K
20260430T12Z_MSC_RDPS_AirTemp_IsbL-0925_RLatLon0.09_PT038H.grib2 2026-04-30 14:51 513K
20260430T12Z_MSC_RDPS_AirTemp_IsbL-0950_RLatLon0.09_PT038H.grib2 2026-04-30 14:51 516K
20260430T12Z_MSC_RDPS_AirTemp_IsbL-0970_RLatLon0.09_PT038H.grib2 2026-04-30 14:51 513K
20260430T12Z_MSC_RDPS_AirTemp_IsbL-0985_RLatLon0.09_PT038H.grib2 2026-04-30 14:51 505K
20260430T12Z_MSC_RDPS_AirTemp_IsbL-1000_RLatLon0.09_PT038H.grib2 2026-04-30 14:51 489K
20260430T12Z_MSC_RDPS_AirTemp_IsbL-1015_RLatLon0.09_PT038H.grib2 2026-04-30 14:51 480K
20260430T12Z_MSC_RDPS_Albedo_Sfc_RLatLon0.09_PT038H.grib2 2026-04-30 14:51 161K
20260430T12Z_MSC_RDPS_CAPE_Sfc_RLatLon0.09_PT038H.grib2 2026-04-30 14:51 1.6M
20260430T12Z_MSC_RDPS_CIN_Sfc_RLatLon0.09_PT038H.grib2 2026-04-30 14:51 1.2M
20260430T12Z_MSC_RDPS_CloudWater_EAtm_RLatLon0.09_PT038H.grib2 2026-04-30 14:51 222K
20260430T12Z_MSC_RDPS_ConvectivePrecip-Accum_Sfc_RLatLon0.09_PT038H.grib2 2026-04-30 14:51 936K
20260430T12Z_MSC_RDPS_DewPointDepression_AGL-2m_RLatLon0.09_PT038H.grib2 2026-04-30 14:51 399K
20260430T12Z_MSC_RDPS_DewPointDepression_IsbL-0001_RLatLon0.09_PT038H.grib2 2026-04-30 14:51 193
20260430T12Z_MSC_RDPS_DewPointDepression_IsbL-0005_RLatLon0.09_PT038H.grib2 2026-04-30 14:51 193
20260430T12Z_MSC_RDPS_DewPointDepression_IsbL-0010_RLatLon0.09_PT038H.grib2 2026-04-30 14:51 193
20260430T12Z_MSC_RDPS_DewPointDepression_IsbL-0020_RLatLon0.09_PT038H.grib2 2026-04-30 14:51 193
20260430T12Z_MSC_RDPS_DewPointDepression_IsbL-0030_RLatLon0.09_PT038H.grib2 2026-04-30 14:51 193
20260430T12Z_MSC_RDPS_DewPointDepression_IsbL-0050_RLatLon0.09_PT038H.grib2 2026-04-30 14:51 77K
20260430T12Z_MSC_RDPS_DewPointDepression_IsbL-0100_RLatLon0.09_PT038H.grib2 2026-04-30 14:51 125K
20260430T12Z_MSC_RDPS_DewPointDepression_IsbL-0150_RLatLon0.09_PT038H.grib2 2026-04-30 14:51 151K
20260430T12Z_MSC_RDPS_DewPointDepression_IsbL-0175_RLatLon0.09_PT038H.grib2 2026-04-30 14:51 186K
20260430T12Z_MSC_RDPS_DewPointDepression_IsbL-0200_RLatLon0.09_PT038H.grib2 2026-04-30 14:51 220K
20260430T12Z_MSC_RDPS_DewPointDepression_IsbL-0225_RLatLon0.09_PT038H.grib2 2026-04-30 14:51 256K
20260430T12Z_MSC_RDPS_DewPointDepression_IsbL-0250_RLatLon0.09_PT038H.grib2 2026-04-30 14:51 298K
20260430T12Z_MSC_RDPS_DewPointDepression_IsbL-0275_RLatLon0.09_PT038H.grib2 2026-04-30 14:51 305K
20260430T12Z_MSC_RDPS_DewPointDepression_IsbL-0300_RLatLon0.09_PT038H.grib2 2026-04-30 14:51 320K
20260430T12Z_MSC_RDPS_DewPointDepression_IsbL-0350_RLatLon0.09_PT038H.grib2 2026-04-30 14:51 325K
20260430T12Z_MSC_RDPS_DewPointDepression_IsbL-0400_RLatLon0.09_PT038H.grib2 2026-04-30 14:51 338K
20260430T12Z_MSC_RDPS_DewPointDepression_IsbL-0450_RLatLon0.09_PT038H.grib2 2026-04-30 14:51 349K
20260430T12Z_MSC_RDPS_DewPointDepression_IsbL-0500_RLatLon0.09_PT038H.grib2 2026-04-30 14:51 358K
20260430T12Z_MSC_RDPS_DewPointDepression_IsbL-0550_RLatLon0.09_PT038H.grib2 2026-04-30 14:51 367K
20260430T12Z_MSC_RDPS_DewPointDepression_IsbL-0600_RLatLon0.09_PT038H.grib2 2026-04-30 14:51 380K
20260430T12Z_MSC_RDPS_DewPointDepression_IsbL-0650_RLatLon0.09_PT038H.grib2 2026-04-30 14:51 385K
20260430T12Z_MSC_RDPS_DewPointDepression_IsbL-0700_RLatLon0.09_PT038H.grib2 2026-04-30 14:51 392K
20260430T12Z_MSC_RDPS_DewPointDepression_IsbL-0750_RLatLon0.09_PT038H.grib2 2026-04-30 14:51 411K
20260430T12Z_MSC_RDPS_DewPointDepression_IsbL-0800_RLatLon0.09_PT038H.grib2 2026-04-30 14:51 445K
20260430T12Z_MSC_RDPS_DewPointDepression_IsbL-0850_RLatLon0.09_PT038H.grib2 2026-04-30 14:51 469K
20260430T12Z_MSC_RDPS_DewPointDepression_IsbL-0875_RLatLon0.09_PT038H.grib2 2026-04-30 14:51 470K
20260430T12Z_MSC_RDPS_DewPointDepression_IsbL-0900_RLatLon0.09_PT038H.grib2 2026-04-30 14:51 461K
20260430T12Z_MSC_RDPS_DewPointDepression_IsbL-0925_RLatLon0.09_PT038H.grib2 2026-04-30 14:51 448K
20260430T12Z_MSC_RDPS_DewPointDepression_IsbL-0950_RLatLon0.09_PT038H.grib2 2026-04-30 14:51 441K
20260430T12Z_MSC_RDPS_DewPointDepression_IsbL-0970_RLatLon0.09_PT038H.grib2 2026-04-30 14:51 432K
20260430T12Z_MSC_RDPS_DewPointDepression_IsbL-0985_RLatLon0.09_PT038H.grib2 2026-04-30 14:51 427K
20260430T12Z_MSC_RDPS_DewPointDepression_IsbL-1000_RLatLon0.09_PT038H.grib2 2026-04-30 14:51 418K
20260430T12Z_MSC_RDPS_DewPointDepression_IsbL-1015_RLatLon0.09_PT038H.grib2 2026-04-30 14:51 406K
20260430T12Z_MSC_RDPS_DewPoint_AGL-2m_RLatLon0.09_PT038H.grib2 2026-04-30 14:51 387K
20260430T12Z_MSC_RDPS_DownwardLongwaveRadiationFlux-Accum_Sfc_RLatLon0.09_PT038H.grib2 2026-04-30 14:51 377K
20260430T12Z_MSC_RDPS_DownwardShortwaveRadiationFlux-Accum_NTAtm_RLatLon0.09_PT038H.grib2 2026-04-30 14:51 95K
20260430T12Z_MSC_RDPS_DownwardShortwaveRadiationFlux-Accum_Sfc_RLatLon0.09_PT038H.grib2 2026-04-30 14:51 539K
20260430T12Z_MSC_RDPS_FreezingRain-Accum1h_Sfc_RLatLon0.09_PT038H.grib2 2026-04-30 14:51 32K
20260430T12Z_MSC_RDPS_FreezingRain-Accum_Sfc_RLatLon0.09_PT038H.grib2 2026-04-30 14:51 146K
20260430T12Z_MSC_RDPS_GeopotentialHeight_IsbL-0001_RLatLon0.09_PT038H.grib2 2026-04-30 14:51 304K
20260430T12Z_MSC_RDPS_GeopotentialHeight_IsbL-0005_RLatLon0.09_PT038H.grib2 2026-04-30 14:51 295K
20260430T12Z_MSC_RDPS_GeopotentialHeight_IsbL-0010_RLatLon0.09_PT038H.grib2 2026-04-30 14:51 297K
20260430T12Z_MSC_RDPS_GeopotentialHeight_IsbL-0020_RLatLon0.09_PT038H.grib2 2026-04-30 14:51 296K
20260430T12Z_MSC_RDPS_GeopotentialHeight_IsbL-0030_RLatLon0.09_PT038H.grib2 2026-04-30 14:51 299K
20260430T12Z_MSC_RDPS_GeopotentialHeight_IsbL-0050_RLatLon0.09_PT038H.grib2 2026-04-30 14:51 300K
20260430T12Z_MSC_RDPS_GeopotentialHeight_IsbL-0100_RLatLon0.09_PT038H.grib2 2026-04-30 14:51 280K
20260430T12Z_MSC_RDPS_GeopotentialHeight_IsbL-0150_RLatLon0.09_PT038H.grib2 2026-04-30 14:51 225K
20260430T12Z_MSC_RDPS_GeopotentialHeight_IsbL-0175_RLatLon0.09_PT038H.grib2 2026-04-30 14:51 228K
20260430T12Z_MSC_RDPS_GeopotentialHeight_IsbL-0200_RLatLon0.09_PT038H.grib2 2026-04-30 14:51 261K
20260430T12Z_MSC_RDPS_GeopotentialHeight_IsbL-0225_RLatLon0.09_PT038H.grib2 2026-04-30 14:51 262K
20260430T12Z_MSC_RDPS_GeopotentialHeight_IsbL-0250_RLatLon0.09_PT038H.grib2 2026-04-30 14:51 263K
20260430T12Z_MSC_RDPS_GeopotentialHeight_IsbL-0275_RLatLon0.09_PT038H.grib2 2026-04-30 14:51 262K
20260430T12Z_MSC_RDPS_GeopotentialHeight_IsbL-0300_RLatLon0.09_PT038H.grib2 2026-04-30 14:51 262K
20260430T12Z_MSC_RDPS_GeopotentialHeight_IsbL-0350_RLatLon0.09_PT038H.grib2 2026-04-30 14:51 227K
20260430T12Z_MSC_RDPS_GeopotentialHeight_IsbL-0400_RLatLon0.09_PT038H.grib2 2026-04-30 14:51 224K
20260430T12Z_MSC_RDPS_GeopotentialHeight_IsbL-0450_RLatLon0.09_PT038H.grib2 2026-04-30 14:51 293K
20260430T12Z_MSC_RDPS_GeopotentialHeight_IsbL-0500_RLatLon0.09_PT038H.grib2 2026-04-30 14:51 289K
20260430T12Z_MSC_RDPS_GeopotentialHeight_IsbL-0550_RLatLon0.09_PT038H.grib2 2026-04-30 14:51 285K
20260430T12Z_MSC_RDPS_GeopotentialHeight_IsbL-0600_RLatLon0.09_PT038H.grib2 2026-04-30 14:51 283K
20260430T12Z_MSC_RDPS_GeopotentialHeight_IsbL-0650_RLatLon0.09_PT038H.grib2 2026-04-30 14:51 252K
20260430T12Z_MSC_RDPS_GeopotentialHeight_IsbL-0700_RLatLon0.09_PT038H.grib2 2026-04-30 14:51 251K
20260430T12Z_MSC_RDPS_GeopotentialHeight_IsbL-0750_RLatLon0.09_PT038H.grib2 2026-04-30 14:51 334K
20260430T12Z_MSC_RDPS_GeopotentialHeight_IsbL-0800_RLatLon0.09_PT038H.grib2 2026-04-30 14:51 341K
20260430T12Z_MSC_RDPS_GeopotentialHeight_IsbL-0850_RLatLon0.09_PT038H.grib2 2026-04-30 14:51 348K
20260430T12Z_MSC_RDPS_GeopotentialHeight_IsbL-0875_RLatLon0.09_PT038H.grib2 2026-04-30 14:51 351K
20260430T12Z_MSC_RDPS_GeopotentialHeight_IsbL-0900_RLatLon0.09_PT038H.grib2 2026-04-30 14:51 387K
20260430T12Z_MSC_RDPS_GeopotentialHeight_IsbL-0925_RLatLon0.09_PT038H.grib2 2026-04-30 14:51 390K
20260430T12Z_MSC_RDPS_GeopotentialHeight_IsbL-0950_RLatLon0.09_PT038H.grib2 2026-04-30 14:51 393K
20260430T12Z_MSC_RDPS_GeopotentialHeight_IsbL-0970_RLatLon0.09_PT038H.grib2 2026-04-30 14:51 398K
20260430T12Z_MSC_RDPS_GeopotentialHeight_IsbL-0985_RLatLon0.09_PT038H.grib2 2026-04-30 14:51 407K
20260430T12Z_MSC_RDPS_GeopotentialHeight_IsbL-1000_RLatLon0.09_PT038H.grib2 2026-04-30 14:51 419K
20260430T12Z_MSC_RDPS_GeopotentialHeight_IsbL-1015_RLatLon0.09_PT038H.grib2 2026-04-30 14:51 433K
20260430T12Z_MSC_RDPS_Humidex_Sfc_RLatLon0.09_PT038H.grib2 2026-04-30 14:51 2.4M
20260430T12Z_MSC_RDPS_IcePellets-Accum1h_Sfc_RLatLon0.09_PT038H.grib2 2026-04-30 14:51 7.6K
20260430T12Z_MSC_RDPS_IcePellets-Accum_Sfc_RLatLon0.09_PT038H.grib2 2026-04-30 14:51 23K
20260430T12Z_MSC_RDPS_KIndex_Sfc_RLatLon0.09_PT038H.grib2 2026-04-30 14:51 2.5M
20260430T12Z_MSC_RDPS_LatentHeatNetFlux_Sfc_RLatLon0.09_PT038H.grib2 2026-04-30 14:51 319K
20260430T12Z_MSC_RDPS_LiftedIndex-MU-VT_IsbL-0500_RLatLon0.09_PT038H.grib2 2026-04-30 14:51 2.4M
20260430T12Z_MSC_RDPS_NetLongwaveRadiationFlux-Accum_Sfc_RLatLon0.09_PT038H.grib2 2026-04-30 14:51 513K
20260430T12Z_MSC_RDPS_NetShortwaveRadiationFlux-Accum_Sfc_RLatLon0.09_PT038H.grib2 2026-04-30 14:51 541K
20260430T12Z_MSC_RDPS_PlanetaryBoundaryLayerHeight_Sfc_RLatLon0.09_PT038H.grib2 2026-04-30 14:51 1.1M
20260430T12Z_MSC_RDPS_Precip-Accum1h_Sfc_RLatLon0.09_PT038H.grib2 2026-04-30 14:51 1.2M
20260430T12Z_MSC_RDPS_Precip-Accum_Sfc_RLatLon0.09_PT038H.grib2 2026-04-30 14:51 1.9M
20260430T12Z_MSC_RDPS_PrecipRate_Sfc_RLatLon0.09_PT038H.grib2 2026-04-30 14:51 171K
20260430T12Z_MSC_RDPS_PrecipType-Instant_Sfc_RLatLon0.09_PT038H.grib2 2026-04-30 14:51 570K
20260430T12Z_MSC_RDPS_Pressure-Trend3h_Sfc_RLatLon0.09_PT038H.grib2 2026-04-30 14:51 1.2M
20260430T12Z_MSC_RDPS_Pressure_MSL_RLatLon0.09_PT038H.grib2 2026-04-30 14:51 321K
20260430T12Z_MSC_RDPS_Pressure_PVU-1.5_RLatLon0.09_PT038H.grib2 2026-04-30 14:51 2.5M
20260430T12Z_MSC_RDPS_Pressure_PVU-1_RLatLon0.09_PT038H.grib2 2026-04-30 14:51 2.4M
20260430T12Z_MSC_RDPS_Pressure_PVU-2_RLatLon0.09_PT038H.grib2 2026-04-30 14:51 2.4M
20260430T12Z_MSC_RDPS_Pressure_Sfc_RLatLon0.09_PT038H.grib2 2026-04-30 14:51 497K
20260430T12Z_MSC_RDPS_RadiativeTemp_Sfc_RLatLon0.09_PT038H.grib2 2026-04-30 14:51 305K
20260430T12Z_MSC_RDPS_Rain-Accum1h_Sfc_RLatLon0.09_PT038H.grib2 2026-04-30 14:51 578K
20260430T12Z_MSC_RDPS_Rain-Accum_Sfc_RLatLon0.09_PT038H.grib2 2026-04-30 14:51 1.5M
20260430T12Z_MSC_RDPS_RelativeHumidity_AGL-2m_RLatLon0.09_PT038H.grib2 2026-04-30 14:51 1.0M
20260430T12Z_MSC_RDPS_RelativeHumidity_IsbL-0010_RLatLon0.09_PT038H.grib2 2026-04-30 14:51 623K
20260430T12Z_MSC_RDPS_RelativeHumidity_IsbL-0020_RLatLon0.09_PT038H.grib2 2026-04-30 14:51 672K
20260430T12Z_MSC_RDPS_RelativeHumidity_IsbL-0030_RLatLon0.09_PT038H.grib2 2026-04-30 14:51 603K
20260430T12Z_MSC_RDPS_RelativeHumidity_IsbL-0050_RLatLon0.09_PT038H.grib2 2026-04-30 14:51 309K
20260430T12Z_MSC_RDPS_RelativeHumidity_IsbL-0100_RLatLon0.09_PT038H.grib2 2026-04-30 14:51 275K
20260430T12Z_MSC_RDPS_RelativeHumidity_IsbL-0150_RLatLon0.09_PT038H.grib2 2026-04-30 14:51 403K
20260430T12Z_MSC_RDPS_RelativeHumidity_IsbL-0175_RLatLon0.09_PT038H.grib2 2026-04-30 14:51 472K
20260430T12Z_MSC_RDPS_RelativeHumidity_IsbL-0200_RLatLon0.09_PT038H.grib2 2026-04-30 14:51 555K
20260430T12Z_MSC_RDPS_RelativeHumidity_IsbL-0225_RLatLon0.09_PT038H.grib2 2026-04-30 14:51 619K
20260430T12Z_MSC_RDPS_RelativeHumidity_IsbL-0250_RLatLon0.09_PT038H.grib2 2026-04-30 14:51 686K
20260430T12Z_MSC_RDPS_RelativeHumidity_IsbL-0275_RLatLon0.09_PT038H.grib2 2026-04-30 14:51 706K
20260430T12Z_MSC_RDPS_RelativeHumidity_IsbL-0300_RLatLon0.09_PT038H.grib2 2026-04-30 14:51 743K
20260430T12Z_MSC_RDPS_RelativeHumidity_IsbL-0350_RLatLon0.09_PT038H.grib2 2026-04-30 14:51 763K
20260430T12Z_MSC_RDPS_RelativeHumidity_IsbL-0400_RLatLon0.09_PT038H.grib2 2026-04-30 14:51 784K
20260430T12Z_MSC_RDPS_RelativeHumidity_IsbL-0450_RLatLon0.09_PT038H.grib2 2026-04-30 14:51 799K
20260430T12Z_MSC_RDPS_RelativeHumidity_IsbL-0500_RLatLon0.09_PT038H.grib2 2026-04-30 14:51 808K
20260430T12Z_MSC_RDPS_RelativeHumidity_IsbL-0550_RLatLon0.09_PT038H.grib2 2026-04-30 14:51 827K
20260430T12Z_MSC_RDPS_RelativeHumidity_IsbL-0600_RLatLon0.09_PT038H.grib2 2026-04-30 14:51 848K
20260430T12Z_MSC_RDPS_RelativeHumidity_IsbL-0650_RLatLon0.09_PT038H.grib2 2026-04-30 14:51 859K
20260430T12Z_MSC_RDPS_RelativeHumidity_IsbL-0700_RLatLon0.09_PT038H.grib2 2026-04-30 14:51 889K
20260430T12Z_MSC_RDPS_RelativeHumidity_IsbL-0750_RLatLon0.09_PT038H.grib2 2026-04-30 14:51 928K
20260430T12Z_MSC_RDPS_RelativeHumidity_IsbL-0800_RLatLon0.09_PT038H.grib2 2026-04-30 14:51 1.0M
20260430T12Z_MSC_RDPS_RelativeHumidity_IsbL-0850_RLatLon0.09_PT038H.grib2 2026-04-30 14:51 1.0M
20260430T12Z_MSC_RDPS_RelativeHumidity_IsbL-0875_RLatLon0.09_PT038H.grib2 2026-04-30 14:51 1.0M
20260430T12Z_MSC_RDPS_RelativeHumidity_IsbL-0900_RLatLon0.09_PT038H.grib2 2026-04-30 14:51 1.1M
20260430T12Z_MSC_RDPS_RelativeHumidity_IsbL-0925_RLatLon0.09_PT038H.grib2 2026-04-30 14:51 1.1M
20260430T12Z_MSC_RDPS_RelativeHumidity_IsbL-0950_RLatLon0.09_PT038H.grib2 2026-04-30 14:51 1.0M
20260430T12Z_MSC_RDPS_RelativeHumidity_IsbL-0970_RLatLon0.09_PT038H.grib2 2026-04-30 14:51 1.0M
20260430T12Z_MSC_RDPS_RelativeHumidity_IsbL-0985_RLatLon0.09_PT038H.grib2 2026-04-30 14:51 1.0M
20260430T12Z_MSC_RDPS_RelativeHumidity_IsbL-1000_RLatLon0.09_PT038H.grib2 2026-04-30 14:51 1.0M
20260430T12Z_MSC_RDPS_RelativeHumidity_IsbL-1015_RLatLon0.09_PT038H.grib2 2026-04-30 14:51 1.0M
20260430T12Z_MSC_RDPS_Runoff-Accum_Sfc_RLatLon0.09_PT038H.grib2 2026-04-30 14:51 49K
20260430T12Z_MSC_RDPS_SWEATIndex_Sfc_RLatLon0.09_PT038H.grib2 2026-04-30 14:51 2.4M
20260430T12Z_MSC_RDPS_SeeingIndex_EAtm_RLatLon0.09_PT038H.grib2 2026-04-30 14:51 1.0M
20260430T12Z_MSC_RDPS_SensibleHeatNetFlux_Sfc_RLatLon0.09_PT038H.grib2 2026-04-30 14:51 286K
20260430T12Z_MSC_RDPS_ShowalterIndex_IsbL-0500_RLatLon0.09_PT038H.grib2 2026-04-30 14:51 2.6M
20260430T12Z_MSC_RDPS_SkyTransparencyIndex_EAtm_RLatLon0.09_PT038H.grib2 2026-04-30 14:51 708K
20260430T12Z_MSC_RDPS_Snow-Accum1h_Sfc_RLatLon0.09_PT038H.grib2 2026-04-30 14:51 458K
20260430T12Z_MSC_RDPS_Snow-Accum_Sfc_RLatLon0.09_PT038H.grib2 2026-04-30 14:51 682K
20260430T12Z_MSC_RDPS_SnowDensity_Sfc_RLatLon0.09_PT038H.grib2 2026-04-30 14:51 172K
20260430T12Z_MSC_RDPS_SnowDepth_Sfc_RLatLon0.09_PT038H.grib2 2026-04-30 14:51 666K
20260430T12Z_MSC_RDPS_SoilTemp_DBS-0to10cm_RLatLon0.09_PT038H.grib2 2026-04-30 14:51 238K
20260430T12Z_MSC_RDPS_SoilTemp_Sfc_RLatLon0.09_PT038H.grib2 2026-04-30 14:51 270K
20260430T12Z_MSC_RDPS_SoilVolumetricIceContent_Sfc_RLatLon0.09_PT038H.grib2 2026-04-30 14:51 160K
20260430T12Z_MSC_RDPS_SoilVolumetricWaterContent_DBS-0to10cm_RLatLon0.09_PT038H.grib2 2026-04-30 14:51 270K
20260430T12Z_MSC_RDPS_SoilVolumetricWaterContent_DBS-0to1cm_RLatLon0.09_PT038H.grib2 2026-04-30 14:51 340K
20260430T12Z_MSC_RDPS_SpecificHumidity_AGL-120m_RLatLon0.09_PT038H.grib2 2026-04-30 14:51 480K
20260430T12Z_MSC_RDPS_SpecificHumidity_AGL-2m_RLatLon0.09_PT038H.grib2 2026-04-30 14:51 648K
20260430T12Z_MSC_RDPS_SpecificHumidity_AGL-40m_RLatLon0.09_PT038H.grib2 2026-04-30 14:51 486K
20260430T12Z_MSC_RDPS_SpecificHumidity_AGL-80m_RLatLon0.09_PT038H.grib2 2026-04-30 14:51 481K
20260430T12Z_MSC_RDPS_SpecificHumidity_IsbL-0001_RLatLon0.09_PT038H.grib2 2026-04-30 14:51 358K
20260430T12Z_MSC_RDPS_SpecificHumidity_IsbL-0005_RLatLon0.09_PT038H.grib2 2026-04-30 14:51 360K
20260430T12Z_MSC_RDPS_SpecificHumidity_IsbL-0010_RLatLon0.09_PT038H.grib2 2026-04-30 14:51 394K
20260430T12Z_MSC_RDPS_SpecificHumidity_IsbL-0020_RLatLon0.09_PT038H.grib2 2026-04-30 14:51 383K
20260430T12Z_MSC_RDPS_SpecificHumidity_IsbL-0030_RLatLon0.09_PT038H.grib2 2026-04-30 14:51 372K
20260430T12Z_MSC_RDPS_SpecificHumidity_IsbL-0050_RLatLon0.09_PT038H.grib2 2026-04-30 14:51 482K
20260430T12Z_MSC_RDPS_SpecificHumidity_IsbL-0100_RLatLon0.09_PT038H.grib2 2026-04-30 14:51 424K
20260430T12Z_MSC_RDPS_SpecificHumidity_IsbL-0150_RLatLon0.09_PT038H.grib2 2026-04-30 14:51 447K
20260430T12Z_MSC_RDPS_SpecificHumidity_IsbL-0175_RLatLon0.09_PT038H.grib2 2026-04-30 14:51 429K
20260430T12Z_MSC_RDPS_SpecificHumidity_IsbL-0200_RLatLon0.09_PT038H.grib2 2026-04-30 14:51 447K
20260430T12Z_MSC_RDPS_SpecificHumidity_IsbL-0225_RLatLon0.09_PT038H.grib2 2026-04-30 14:51 451K
20260430T12Z_MSC_RDPS_SpecificHumidity_IsbL-0250_RLatLon0.09_PT038H.grib2 2026-04-30 14:51 557K
20260430T12Z_MSC_RDPS_SpecificHumidity_IsbL-0275_RLatLon0.09_PT038H.grib2 2026-04-30 14:51 469K
20260430T12Z_MSC_RDPS_SpecificHumidity_IsbL-0300_RLatLon0.09_PT038H.grib2 2026-04-30 14:51 440K
20260430T12Z_MSC_RDPS_SpecificHumidity_IsbL-0350_RLatLon0.09_PT038H.grib2 2026-04-30 14:51 557K
20260430T12Z_MSC_RDPS_SpecificHumidity_IsbL-0400_RLatLon0.09_PT038H.grib2 2026-04-30 14:51 516K
20260430T12Z_MSC_RDPS_SpecificHumidity_IsbL-0450_RLatLon0.09_PT038H.grib2 2026-04-30 14:51 574K
20260430T12Z_MSC_RDPS_SpecificHumidity_IsbL-0500_RLatLon0.09_PT038H.grib2 2026-04-30 14:51 513K
20260430T12Z_MSC_RDPS_SpecificHumidity_IsbL-0550_RLatLon0.09_PT038H.grib2 2026-04-30 14:51 588K
20260430T12Z_MSC_RDPS_SpecificHumidity_IsbL-0600_RLatLon0.09_PT038H.grib2 2026-04-30 14:51 641K
20260430T12Z_MSC_RDPS_SpecificHumidity_IsbL-0650_RLatLon0.09_PT038H.grib2 2026-04-30 14:51 557K
20260430T12Z_MSC_RDPS_SpecificHumidity_IsbL-0700_RLatLon0.09_PT038H.grib2 2026-04-30 14:51 597K
20260430T12Z_MSC_RDPS_SpecificHumidity_IsbL-0750_RLatLon0.09_PT038H.grib2 2026-04-30 14:51 654K
20260430T12Z_MSC_RDPS_SpecificHumidity_IsbL-0800_RLatLon0.09_PT038H.grib2 2026-04-30 14:51 735K
20260430T12Z_MSC_RDPS_SpecificHumidity_IsbL-0850_RLatLon0.09_PT038H.grib2 2026-04-30 14:51 803K
20260430T12Z_MSC_RDPS_SpecificHumidity_IsbL-0875_RLatLon0.09_PT038H.grib2 2026-04-30 14:51 828K
20260430T12Z_MSC_RDPS_SpecificHumidity_IsbL-0900_RLatLon0.09_PT038H.grib2 2026-04-30 14:51 841K
20260430T12Z_MSC_RDPS_SpecificHumidity_IsbL-0925_RLatLon0.09_PT038H.grib2 2026-04-30 14:51 842K
20260430T12Z_MSC_RDPS_SpecificHumidity_IsbL-0950_RLatLon0.09_PT038H.grib2 2026-04-30 14:51 843K
20260430T12Z_MSC_RDPS_SpecificHumidity_IsbL-0970_RLatLon0.09_PT038H.grib2 2026-04-30 14:51 691K
20260430T12Z_MSC_RDPS_SpecificHumidity_IsbL-0985_RLatLon0.09_PT038H.grib2 2026-04-30 14:51 680K
20260430T12Z_MSC_RDPS_SpecificHumidity_IsbL-1000_RLatLon0.09_PT038H.grib2 2026-04-30 14:51 671K
20260430T12Z_MSC_RDPS_SpecificHumidity_IsbL-1015_RLatLon0.09_PT038H.grib2 2026-04-30 14:51 658K
20260430T12Z_MSC_RDPS_SpecificHumidity_Sfc_RLatLon0.09_PT038H.grib2 2026-04-30 14:51 321K
20260430T12Z_MSC_RDPS_StormRelativeHelicity_EtaL-10000_RLatLon0.09_PT038H.grib2 2026-04-30 14:51 1.1M
20260430T12Z_MSC_RDPS_StormSeverityIndex_EtaL-10000_RLatLon0.09_PT038H.grib2 2026-04-30 14:51 1.2M
20260430T12Z_MSC_RDPS_Thickness_IsbL-0850to0700_RLatLon0.09_PT038H.grib2 2026-04-30 14:51 173K
20260430T12Z_MSC_RDPS_Thickness_IsbL-1000to0500_RLatLon0.09_PT038H.grib2 2026-04-30 14:51 194K
20260430T12Z_MSC_RDPS_Thickness_IsbL-1000to0850_RLatLon0.09_PT038H.grib2 2026-04-30 14:51 182K
20260430T12Z_MSC_RDPS_TotalCloudCover_Sfc_RLatLon0.09_PT038H.grib2 2026-04-30 14:51 642K
20260430T12Z_MSC_RDPS_TotalTotalsIndex_Sfc_RLatLon0.09_PT038H.grib2 2026-04-30 14:51 2.4M
20260430T12Z_MSC_RDPS_UVIndex-ClearSky_Sfc_RLatLon0.09_PT038H.grib2 2026-04-30 14:51 118K
20260430T12Z_MSC_RDPS_UVIndex_Sfc_RLatLon0.09_PT038H.grib2 2026-04-30 14:51 249K
20260430T12Z_MSC_RDPS_UpwardLongwaveRadiationFlux_NTAtm_RLatLon0.09_PT038H.grib2 2026-04-30 14:51 476K
20260430T12Z_MSC_RDPS_UpwardShortwaveRadiationFlux_NTAtm_RLatLon0.09_PT038H.grib2 2026-04-30 14:51 233K
20260430T12Z_MSC_RDPS_VerticalVelocity_IsbL-0250_RLatLon0.09_PT038H.grib2 2026-04-30 14:51 538K
20260430T12Z_MSC_RDPS_VerticalVelocity_IsbL-0500_RLatLon0.09_PT038H.grib2 2026-04-30 14:51 533K
20260430T12Z_MSC_RDPS_VerticalVelocity_IsbL-0700_RLatLon0.09_PT038H.grib2 2026-04-30 14:51 616K
20260430T12Z_MSC_RDPS_VerticalVelocity_IsbL-0850_RLatLon0.09_PT038H.grib2 2026-04-30 14:51 705K
20260430T12Z_MSC_RDPS_VerticalWindShear_EtaL-6500_RLatLon0.09_PT038H.grib2 2026-04-30 14:51 1.2M
20260430T12Z_MSC_RDPS_WindChill_Sfc_RLatLon0.09_PT038H.grib2 2026-04-30 14:51 1.1M
20260430T12Z_MSC_RDPS_WindDir_AGL-10m_RLatLon0.09_PT038H.grib2 2026-04-30 14:51 945K
20260430T12Z_MSC_RDPS_WindDir_AGL-120m_RLatLon0.09_PT038H.grib2 2026-04-30 14:51 588K
20260430T12Z_MSC_RDPS_WindDir_AGL-40m_RLatLon0.09_PT038H.grib2 2026-04-30 14:51 618K
20260430T12Z_MSC_RDPS_WindDir_AGL-80m_RLatLon0.09_PT038H.grib2 2026-04-30 14:51 599K
20260430T12Z_MSC_RDPS_WindDir_IsbL-0001_RLatLon0.09_PT038H.grib2 2026-04-30 14:51 314K
20260430T12Z_MSC_RDPS_WindDir_IsbL-0005_RLatLon0.09_PT038H.grib2 2026-04-30 14:51 364K
20260430T12Z_MSC_RDPS_WindDir_IsbL-0010_RLatLon0.09_PT038H.grib2 2026-04-30 14:51 391K
20260430T12Z_MSC_RDPS_WindDir_IsbL-0020_RLatLon0.09_PT038H.grib2 2026-04-30 14:51 430K
20260430T12Z_MSC_RDPS_WindDir_IsbL-0030_RLatLon0.09_PT038H.grib2 2026-04-30 14:51 413K
20260430T12Z_MSC_RDPS_WindDir_IsbL-0050_RLatLon0.09_PT038H.grib2 2026-04-30 14:51 415K
20260430T12Z_MSC_RDPS_WindDir_IsbL-0100_RLatLon0.09_PT038H.grib2 2026-04-30 14:51 412K
20260430T12Z_MSC_RDPS_WindDir_IsbL-0150_RLatLon0.09_PT038H.grib2 2026-04-30 14:51 406K
20260430T12Z_MSC_RDPS_WindDir_IsbL-0175_RLatLon0.09_PT038H.grib2 2026-04-30 14:51 429K
20260430T12Z_MSC_RDPS_WindDir_IsbL-0200_RLatLon0.09_PT038H.grib2 2026-04-30 14:51 444K
20260430T12Z_MSC_RDPS_WindDir_IsbL-0225_RLatLon0.09_PT038H.grib2 2026-04-30 14:51 447K
20260430T12Z_MSC_RDPS_WindDir_IsbL-0250_RLatLon0.09_PT038H.grib2 2026-04-30 14:51 448K
20260430T12Z_MSC_RDPS_WindDir_IsbL-0275_RLatLon0.09_PT038H.grib2 2026-04-30 14:51 470K
20260430T12Z_MSC_RDPS_WindDir_IsbL-0300_RLatLon0.09_PT038H.grib2 2026-04-30 14:51 467K
20260430T12Z_MSC_RDPS_WindDir_IsbL-0350_RLatLon0.09_PT038H.grib2 2026-04-30 14:51 486K
20260430T12Z_MSC_RDPS_WindDir_IsbL-0400_RLatLon0.09_PT038H.grib2 2026-04-30 14:51 508K
20260430T12Z_MSC_RDPS_WindDir_IsbL-0450_RLatLon0.09_PT038H.grib2 2026-04-30 14:51 522K
20260430T12Z_MSC_RDPS_WindDir_IsbL-0500_RLatLon0.09_PT038H.grib2 2026-04-30 14:51 539K
20260430T12Z_MSC_RDPS_WindDir_IsbL-0550_RLatLon0.09_PT038H.grib2 2026-04-30 14:51 556K
20260430T12Z_MSC_RDPS_WindDir_IsbL-0600_RLatLon0.09_PT038H.grib2 2026-04-30 14:51 583K
20260430T12Z_MSC_RDPS_WindDir_IsbL-0650_RLatLon0.09_PT038H.grib2 2026-04-30 14:51 625K
20260430T12Z_MSC_RDPS_WindDir_IsbL-0700_RLatLon0.09_PT038H.grib2 2026-04-30 14:51 671K
20260430T12Z_MSC_RDPS_WindDir_IsbL-0750_RLatLon0.09_PT038H.grib2 2026-04-30 14:51 719K
20260430T12Z_MSC_RDPS_WindDir_IsbL-0800_RLatLon0.09_PT038H.grib2 2026-04-30 14:51 785K
20260430T12Z_MSC_RDPS_WindDir_IsbL-0850_RLatLon0.09_PT038H.grib2 2026-04-30 14:51 855K
20260430T12Z_MSC_RDPS_WindDir_IsbL-0875_RLatLon0.09_PT038H.grib2 2026-04-30 14:51 880K
20260430T12Z_MSC_RDPS_WindDir_IsbL-0900_RLatLon0.09_PT038H.grib2 2026-04-30 14:51 893K
20260430T12Z_MSC_RDPS_WindDir_IsbL-0925_RLatLon0.09_PT038H.grib2 2026-04-30 14:51 902K
20260430T12Z_MSC_RDPS_WindDir_IsbL-0950_RLatLon0.09_PT038H.grib2 2026-04-30 14:51 896K
20260430T12Z_MSC_RDPS_WindDir_IsbL-0970_RLatLon0.09_PT038H.grib2 2026-04-30 14:51 901K
20260430T12Z_MSC_RDPS_WindDir_IsbL-0985_RLatLon0.09_PT038H.grib2 2026-04-30 14:51 909K
20260430T12Z_MSC_RDPS_WindDir_IsbL-1000_RLatLon0.09_PT038H.grib2 2026-04-30 14:51 922K
20260430T12Z_MSC_RDPS_WindDir_IsbL-1015_RLatLon0.09_PT038H.grib2 2026-04-30 14:51 937K
20260430T12Z_MSC_RDPS_WindGust-Max_AGL-10m_RLatLon0.09_PT038H.grib2 2026-04-30 14:51 1.0M
20260430T12Z_MSC_RDPS_WindGust-Min_AGL-10m_RLatLon0.09_PT038H.grib2 2026-04-30 14:51 954K
20260430T12Z_MSC_RDPS_WindGust_AGL-10m_RLatLon0.09_PT038H.grib2 2026-04-30 14:51 1.0M
20260430T12Z_MSC_RDPS_WindSpeed_AGL-10m_RLatLon0.09_PT038H.grib2 2026-04-30 14:51 826K
20260430T12Z_MSC_RDPS_WindSpeed_AGL-120m_RLatLon0.09_PT038H.grib2 2026-04-30 14:51 530K
20260430T12Z_MSC_RDPS_WindSpeed_AGL-40m_RLatLon0.09_PT038H.grib2 2026-04-30 14:51 533K
20260430T12Z_MSC_RDPS_WindSpeed_AGL-80m_RLatLon0.09_PT038H.grib2 2026-04-30 14:51 531K
20260430T12Z_MSC_RDPS_WindSpeed_IsbL-0001_RLatLon0.09_PT038H.grib2 2026-04-30 14:51 249K
20260430T12Z_MSC_RDPS_WindSpeed_IsbL-0005_RLatLon0.09_PT038H.grib2 2026-04-30 14:51 381K
20260430T12Z_MSC_RDPS_WindSpeed_IsbL-0010_RLatLon0.09_PT038H.grib2 2026-04-30 14:51 361K
20260430T12Z_MSC_RDPS_WindSpeed_IsbL-0020_RLatLon0.09_PT038H.grib2 2026-04-30 14:51 319K
20260430T12Z_MSC_RDPS_WindSpeed_IsbL-0030_RLatLon0.09_PT038H.grib2 2026-04-30 14:51 315K
20260430T12Z_MSC_RDPS_WindSpeed_IsbL-0050_RLatLon0.09_PT038H.grib2 2026-04-30 14:51 344K
20260430T12Z_MSC_RDPS_WindSpeed_IsbL-0100_RLatLon0.09_PT038H.grib2 2026-04-30 14:51 471K
20260430T12Z_MSC_RDPS_WindSpeed_IsbL-0150_RLatLon0.09_PT038H.grib2 2026-04-30 14:51 378K
20260430T12Z_MSC_RDPS_WindSpeed_IsbL-0175_RLatLon0.09_PT038H.grib2 2026-04-30 14:51 403K
20260430T12Z_MSC_RDPS_WindSpeed_IsbL-0200_RLatLon0.09_PT038H.grib2 2026-04-30 14:51 438K
20260430T12Z_MSC_RDPS_WindSpeed_IsbL-0225_RLatLon0.09_PT038H.grib2 2026-04-30 14:51 443K
20260430T12Z_MSC_RDPS_WindSpeed_IsbL-0250_RLatLon0.09_PT038H.grib2 2026-04-30 14:51 442K
20260430T12Z_MSC_RDPS_WindSpeed_IsbL-0275_RLatLon0.09_PT038H.grib2 2026-04-30 14:51 459K
20260430T12Z_MSC_RDPS_WindSpeed_IsbL-0300_RLatLon0.09_PT038H.grib2 2026-04-30 14:51 458K
20260430T12Z_MSC_RDPS_WindSpeed_IsbL-0350_RLatLon0.09_PT038H.grib2 2026-04-30 14:51 469K
20260430T12Z_MSC_RDPS_WindSpeed_IsbL-0400_RLatLon0.09_PT038H.grib2 2026-04-30 14:51 472K
20260430T12Z_MSC_RDPS_WindSpeed_IsbL-0450_RLatLon0.09_PT038H.grib2 2026-04-30 14:51 457K
20260430T12Z_MSC_RDPS_WindSpeed_IsbL-0500_RLatLon0.09_PT038H.grib2 2026-04-30 14:51 461K
20260430T12Z_MSC_RDPS_WindSpeed_IsbL-0550_RLatLon0.09_PT038H.grib2 2026-04-30 14:51 581K
20260430T12Z_MSC_RDPS_WindSpeed_IsbL-0600_RLatLon0.09_PT038H.grib2 2026-04-30 14:51 589K
20260430T12Z_MSC_RDPS_WindSpeed_IsbL-0650_RLatLon0.09_PT038H.grib2 2026-04-30 14:51 609K
20260430T12Z_MSC_RDPS_WindSpeed_IsbL-0700_RLatLon0.09_PT038H.grib2 2026-04-30 14:51 676K
20260430T12Z_MSC_RDPS_WindSpeed_IsbL-0750_RLatLon0.09_PT038H.grib2 2026-04-30 14:51 706K
20260430T12Z_MSC_RDPS_WindSpeed_IsbL-0800_RLatLon0.09_PT038H.grib2 2026-04-30 14:51 749K
20260430T12Z_MSC_RDPS_WindSpeed_IsbL-0850_RLatLon0.09_PT038H.grib2 2026-04-30 14:51 803K
20260430T12Z_MSC_RDPS_WindSpeed_IsbL-0875_RLatLon0.09_PT038H.grib2 2026-04-30 14:51 824K
20260430T12Z_MSC_RDPS_WindSpeed_IsbL-0900_RLatLon0.09_PT038H.grib2 2026-04-30 14:51 838K
20260430T12Z_MSC_RDPS_WindSpeed_IsbL-0925_RLatLon0.09_PT038H.grib2 2026-04-30 14:51 851K
20260430T12Z_MSC_RDPS_WindSpeed_IsbL-0950_RLatLon0.09_PT038H.grib2 2026-04-30 14:51 849K
20260430T12Z_MSC_RDPS_WindSpeed_IsbL-0970_RLatLon0.09_PT038H.grib2 2026-04-30 14:51 852K
20260430T12Z_MSC_RDPS_WindSpeed_IsbL-0985_RLatLon0.09_PT038H.grib2 2026-04-30 14:51 847K
20260430T12Z_MSC_RDPS_WindSpeed_IsbL-1000_RLatLon0.09_PT038H.grib2 2026-04-30 14:51 840K
20260430T12Z_MSC_RDPS_WindSpeed_IsbL-1015_RLatLon0.09_PT038H.grib2 2026-04-30 14:51 829K
20260430T12Z_MSC_RDPS_WindU_AGL-10m_RLatLon0.09_PT038H.grib2 2026-04-30 14:51 424K
20260430T12Z_MSC_RDPS_WindU_AGL-120m_RLatLon0.09_PT038H.grib2 2026-04-30 14:51 528K
20260430T12Z_MSC_RDPS_WindU_AGL-40m_RLatLon0.09_PT038H.grib2 2026-04-30 14:51 530K
20260430T12Z_MSC_RDPS_WindU_AGL-80m_RLatLon0.09_PT038H.grib2 2026-04-30 14:51 529K
20260430T12Z_MSC_RDPS_WindU_IsbL-0001_RLatLon0.09_PT038H.grib2 2026-04-30 14:51 240K
20260430T12Z_MSC_RDPS_WindU_IsbL-0005_RLatLon0.09_PT038H.grib2 2026-04-30 14:51 282K
20260430T12Z_MSC_RDPS_WindU_IsbL-0010_RLatLon0.09_PT038H.grib2 2026-04-30 14:51 292K
20260430T12Z_MSC_RDPS_WindU_IsbL-0020_RLatLon0.09_PT038H.grib2 2026-04-30 14:51 309K
20260430T12Z_MSC_RDPS_WindU_IsbL-0030_RLatLon0.09_PT038H.grib2 2026-04-30 14:51 309K
20260430T12Z_MSC_RDPS_WindU_IsbL-0050_RLatLon0.09_PT038H.grib2 2026-04-30 14:51 339K
20260430T12Z_MSC_RDPS_WindU_IsbL-0100_RLatLon0.09_PT038H.grib2 2026-04-30 14:51 426K
20260430T12Z_MSC_RDPS_WindU_IsbL-0150_RLatLon0.09_PT038H.grib2 2026-04-30 14:51 392K
20260430T12Z_MSC_RDPS_WindU_IsbL-0175_RLatLon0.09_PT038H.grib2 2026-04-30 14:51 417K
20260430T12Z_MSC_RDPS_WindU_IsbL-0200_RLatLon0.09_PT038H.grib2 2026-04-30 14:51 334K
20260430T12Z_MSC_RDPS_WindU_IsbL-0225_RLatLon0.09_PT038H.grib2 2026-04-30 14:51 337K
20260430T12Z_MSC_RDPS_WindU_IsbL-0250_RLatLon0.09_PT038H.grib2 2026-04-30 14:51 336K
20260430T12Z_MSC_RDPS_WindU_IsbL-0275_RLatLon0.09_PT038H.grib2 2026-04-30 14:51 350K
20260430T12Z_MSC_RDPS_WindU_IsbL-0300_RLatLon0.09_PT038H.grib2 2026-04-30 14:51 347K
20260430T12Z_MSC_RDPS_WindU_IsbL-0350_RLatLon0.09_PT038H.grib2 2026-04-30 14:51 356K
20260430T12Z_MSC_RDPS_WindU_IsbL-0400_RLatLon0.09_PT038H.grib2 2026-04-30 14:51 461K
20260430T12Z_MSC_RDPS_WindU_IsbL-0450_RLatLon0.09_PT038H.grib2 2026-04-30 14:51 464K
20260430T12Z_MSC_RDPS_WindU_IsbL-0500_RLatLon0.09_PT038H.grib2 2026-04-30 14:51 468K
20260430T12Z_MSC_RDPS_WindU_IsbL-0550_RLatLon0.09_PT038H.grib2 2026-04-30 14:51 471K
20260430T12Z_MSC_RDPS_WindU_IsbL-0600_RLatLon0.09_PT038H.grib2 2026-04-30 14:51 461K
20260430T12Z_MSC_RDPS_WindU_IsbL-0650_RLatLon0.09_PT038H.grib2 2026-04-30 14:51 480K
20260430T12Z_MSC_RDPS_WindU_IsbL-0700_RLatLon0.09_PT038H.grib2 2026-04-30 14:51 502K
20260430T12Z_MSC_RDPS_WindU_IsbL-0750_RLatLon0.09_PT038H.grib2 2026-04-30 14:51 529K
20260430T12Z_MSC_RDPS_WindU_IsbL-0800_RLatLon0.09_PT038H.grib2 2026-04-30 14:51 695K
20260430T12Z_MSC_RDPS_WindU_IsbL-0850_RLatLon0.09_PT038H.grib2 2026-04-30 14:51 612K
20260430T12Z_MSC_RDPS_WindU_IsbL-0875_RLatLon0.09_PT038H.grib2 2026-04-30 14:51 630K
20260430T12Z_MSC_RDPS_WindU_IsbL-0900_RLatLon0.09_PT038H.grib2 2026-04-30 14:51 778K
20260430T12Z_MSC_RDPS_WindU_IsbL-0925_RLatLon0.09_PT038H.grib2 2026-04-30 14:51 649K
20260430T12Z_MSC_RDPS_WindU_IsbL-0950_RLatLon0.09_PT038H.grib2 2026-04-30 14:51 648K
20260430T12Z_MSC_RDPS_WindU_IsbL-0970_RLatLon0.09_PT038H.grib2 2026-04-30 14:51 648K
20260430T12Z_MSC_RDPS_WindU_IsbL-0985_RLatLon0.09_PT038H.grib2 2026-04-30 14:51 643K
20260430T12Z_MSC_RDPS_WindU_IsbL-1000_RLatLon0.09_PT038H.grib2 2026-04-30 14:51 775K
20260430T12Z_MSC_RDPS_WindU_IsbL-1015_RLatLon0.09_PT038H.grib2 2026-04-30 14:51 767K
20260430T12Z_MSC_RDPS_WindV_AGL-10m_RLatLon0.09_PT038H.grib2 2026-04-30 14:51 422K
20260430T12Z_MSC_RDPS_WindV_AGL-120m_RLatLon0.09_PT038H.grib2 2026-04-30 14:51 525K
20260430T12Z_MSC_RDPS_WindV_AGL-40m_RLatLon0.09_PT038H.grib2 2026-04-30 14:51 527K
20260430T12Z_MSC_RDPS_WindV_AGL-80m_RLatLon0.09_PT038H.grib2 2026-04-30 14:51 526K
20260430T12Z_MSC_RDPS_WindV_IsbL-0001_RLatLon0.09_PT038H.grib2 2026-04-30 14:51 242K
20260430T12Z_MSC_RDPS_WindV_IsbL-0005_RLatLon0.09_PT038H.grib2 2026-04-30 14:51 284K
20260430T12Z_MSC_RDPS_WindV_IsbL-0010_RLatLon0.09_PT038H.grib2 2026-04-30 14:51 296K
20260430T12Z_MSC_RDPS_WindV_IsbL-0020_RLatLon0.09_PT038H.grib2 2026-04-30 14:51 313K
20260430T12Z_MSC_RDPS_WindV_IsbL-0030_RLatLon0.09_PT038H.grib2 2026-04-30 14:51 312K
20260430T12Z_MSC_RDPS_WindV_IsbL-0050_RLatLon0.09_PT038H.grib2 2026-04-30 14:51 338K
20260430T12Z_MSC_RDPS_WindV_IsbL-0100_RLatLon0.09_PT038H.grib2 2026-04-30 14:51 424K
20260430T12Z_MSC_RDPS_WindV_IsbL-0150_RLatLon0.09_PT038H.grib2 2026-04-30 14:51 393K
20260430T12Z_MSC_RDPS_WindV_IsbL-0175_RLatLon0.09_PT038H.grib2 2026-04-30 14:51 416K
20260430T12Z_MSC_RDPS_WindV_IsbL-0200_RLatLon0.09_PT038H.grib2 2026-04-30 14:51 334K
20260430T12Z_MSC_RDPS_WindV_IsbL-0225_RLatLon0.09_PT038H.grib2 2026-04-30 14:51 336K
20260430T12Z_MSC_RDPS_WindV_IsbL-0250_RLatLon0.09_PT038H.grib2 2026-04-30 14:51 334K
20260430T12Z_MSC_RDPS_WindV_IsbL-0275_RLatLon0.09_PT038H.grib2 2026-04-30 14:51 347K
20260430T12Z_MSC_RDPS_WindV_IsbL-0300_RLatLon0.09_PT038H.grib2 2026-04-30 14:51 345K
20260430T12Z_MSC_RDPS_WindV_IsbL-0350_RLatLon0.09_PT038H.grib2 2026-04-30 14:51 353K
20260430T12Z_MSC_RDPS_WindV_IsbL-0400_RLatLon0.09_PT038H.grib2 2026-04-30 14:51 457K
20260430T12Z_MSC_RDPS_WindV_IsbL-0450_RLatLon0.09_PT038H.grib2 2026-04-30 14:51 460K
20260430T12Z_MSC_RDPS_WindV_IsbL-0500_RLatLon0.09_PT038H.grib2 2026-04-30 14:51 465K
20260430T12Z_MSC_RDPS_WindV_IsbL-0550_RLatLon0.09_PT038H.grib2 2026-04-30 14:51 468K
20260430T12Z_MSC_RDPS_WindV_IsbL-0600_RLatLon0.09_PT038H.grib2 2026-04-30 14:51 458K
20260430T12Z_MSC_RDPS_WindV_IsbL-0650_RLatLon0.09_PT038H.grib2 2026-04-30 14:51 477K
20260430T12Z_MSC_RDPS_WindV_IsbL-0700_RLatLon0.09_PT038H.grib2 2026-04-30 14:51 498K
20260430T12Z_MSC_RDPS_WindV_IsbL-0750_RLatLon0.09_PT038H.grib2 2026-04-30 14:51 524K
20260430T12Z_MSC_RDPS_WindV_IsbL-0800_RLatLon0.09_PT038H.grib2 2026-04-30 14:51 560K
20260430T12Z_MSC_RDPS_WindV_IsbL-0850_RLatLon0.09_PT038H.grib2 2026-04-30 14:51 609K
20260430T12Z_MSC_RDPS_WindV_IsbL-0875_RLatLon0.09_PT038H.grib2 2026-04-30 14:51 627K
20260430T12Z_MSC_RDPS_WindV_IsbL-0900_RLatLon0.09_PT038H.grib2 2026-04-30 14:51 637K
20260430T12Z_MSC_RDPS_WindV_IsbL-0925_RLatLon0.09_PT038H.grib2 2026-04-30 14:51 646K
20260430T12Z_MSC_RDPS_WindV_IsbL-0950_RLatLon0.09_PT038H.grib2 2026-04-30 14:51 644K
20260430T12Z_MSC_RDPS_WindV_IsbL-0970_RLatLon0.09_PT038H.grib2 2026-04-30 14:51 784K
20260430T12Z_MSC_RDPS_WindV_IsbL-0985_RLatLon0.09_PT038H.grib2 2026-04-30 14:51 780K
20260430T12Z_MSC_RDPS_WindV_IsbL-1000_RLatLon0.09_PT038H.grib2 2026-04-30 14:51 772K
20260430T12Z_MSC_RDPS_WindV_IsbL-1015_RLatLon0.09_PT038H.grib2 2026-04-30 14:51 809K